Regional Weather Roundup
Issued by NWS Burlington, VT

Home | Current Version | Previous Version | Text Only | Print | Product List | Glossary On
Versions: 1 2 3 4 5 6 7 8 9 10 11 12 13 14 15 16 17 18 19 20 21 22 23 24 25 26 27 28 29 30 31 32 33 34 35 36 37 38 39 40 41 42 43 44 45 46 47 48 49 50
000
ASUS41 KBTV 212010
RWRBTV
VERMONT REGIONAL WEATHER ROUNDUP
NATIONAL WEATHER SERVICE BURLINGTON VT
300 PM EST SUN DEC 21 2014

NOTE: "FAIR" INDICATES FEW OR NO CLOUDS BELOW 12,000 FEET WITH NO
SIGNIFICANT WEATHER AND/OR OBSTRUCTIONS TO VISIBILITY.

* THESE REPORTS ARE NOT UNDER NWS QUALITY CONTROL AND/OR DO NOT
  REPORT WEATHER SUCH AS PRECIPITATION AND FOG.

VTZ001>019-212100-
_____VERMONT_____


CITY           SKY/WX    TMP DP  RH WIND       PRES   REMARKS
BURLINGTON     CLOUDY    26  19  74 NW3       30.34S
MONTPELIER     CLOUDY    24  18  77 NW3       30.31S
MORRISVILLE    CLOUDY    24  18  77 CALM      30.33R
ST. JOHNSBURY*   N/A     27  21  78 MISG      30.29S
LYNDONVILLE*   CLOUDY    24  19  79 CALM      30.29R
MIDDLEBURY*    CLOUDY    26  21  83 CALM      30.32R
RUTLAND*       CLOUDY    27  21  80 CALM      30.29R
SPRINGFIELD    CLOUDY    30  26  85 CALM      30.30S
HIGHGATE*      CLOUDY    19  17  93 CALM      30.36R FOG
NEWPORT*       CLOUDY    17  15  92 NE3       30.31S FOG
BENNINGTON     CLOUDY    29  25  85 CALM      30.28R FOG

_____LAKE CHAMPLAIN_____


CITY           SKY/WX    TMP DP  RH WIND       PRES   REMARKS
COLCHESTER RF*   N/A     27  27 100 E6          N/A

$$

NYZ007-026>031-035-052-083-212100-
_____NORTHERN NEW YORK_____


CITY           SKY/WX    TMP DP  RH WIND       PRES   REMARKS
PLATTSBURGH    CLOUDY    21  18  88 N7        30.35S FOG
SARANAC LAKE   CLOUDY    24  19  81 CALM      30.21F
MASSENA        CLOUDY    22  16  78 NE8       30.35S
OGDENSBURG*    CLOUDY    27  19  74 NE3       30.32S
POTSDAM*       CLOUDY    27  21  80 NE6       30.31S
WATERTOWN      CLOUDY    35  23  61 SW3       30.30R
FT DRUM        CLOUDY    34  19  54 W3        30.27R
ALBANY         CLOUDY    31  23  72 CALM      30.33R
GLENS FALLS    CLOUDY    28  22  78 E5        30.32S

$$
NHZ002-005-011-212100-
_____NEW HAMPSHIRE_____


CITY           SKY/WX    TMP DP  RH WIND       PRES   REMARKS
LEBANON        CLOUDY    29  24  82 CALM      30.30R
KEENE          CLOUDY    34  28  80 CALM      30.29S
MT WASHINGTON  SNOW      10  10 100 W18         N/A  VSB 1/8 WCI  -8
PLYMOUTH       CLOUDY    31  28  87 CALM      30.30S
WHITEFIELD     CLOUDY    27  21  78 CALM      30.28R

$$

_____REGIONAL QUEBEC LOCATIONS_____


CITY           SKY/WX    TMP DP  RH WIND       PRES   REMARKS
MONTREAL       FLURRIES  19  14  79 NE6       30.38R
QUEBEC CITY    LGT SNOW  18  14  86 N3        30.37S
SHERBROOKE     CLOUDY    18  16  93 W3        30.32S

_____REGIONAL ONTARIO LOCATIONS_____


CITY           SKY/WX    TMP DP  RH WIND       PRES   REMARKS
OTTAWA         CLOUDY    19  16  86 E3        30.34S

______KEY______
VSB  - VISIBILITY IN MILES
WCI  - WIND CHILL INDEX
HX   - HEAT INDEX
$$



USA.gov is the U.S. government's official web portal to all federal, state and local government web resources and services.